<?xml version="1.0"?>
<gpx xmlns="http://www.topografix.com/GPX/1/1" xmlns:xsi="http://www.w3.org/2001/XMLSchema-instance" version="1.1" creator="GPX RubyGem 1.0.0 -- http://dougfales.github.io/gpx/" xsi:schemaLocation="http://www.topografix.com/GPX/1/1 http://www.topografix.com/GPX/1/1/gpx.xsd">
  <metadata>
    <name/>
    <time>2026-05-09T23:28:27+00:00</time>
    <bound minlat="90.0" minlon="180.0" maxlat="-90.0" maxlon="-180.0"/>
  </metadata>
  <trk>
    <name/>
    <trkseg>
      <trkpt lat="43.730528" lon="3.319916">
        <time>1970-01-01T00:00:00+00:00</time>
        <ele>165.0</ele>
      </trkpt>
      <trkpt lat="43.730738" lon="3.32006">
        <time>1970-01-01T00:00:00+00:00</time>
        <ele>167.0</ele>
      </trkpt>
      <trkpt lat="43.730772" lon="3.320079">
        <time>1970-01-01T00:00:00+00:00</time>
        <ele>167.0</ele>
      </trkpt>
      <trkpt lat="43.7308" lon="3.320094">
        <time>1970-01-01T00:00:00+00:00</time>
        <ele>167.0</ele>
      </trkpt>
      <trkpt lat="43.730923" lon="3.320159">
        <time>1970-01-01T00:00:00+00:00</time>
        <ele>168.0</ele>
      </trkpt>
      <trkpt lat="43.730979" lon="3.320189">
        <time>1970-01-01T00:00:00+00:00</time>
        <ele>168.0</ele>
      </trkpt>
      <trkpt lat="43.731004" lon="3.320202">
        <time>1970-01-01T00:00:00+00:00</time>
        <ele>168.0</ele>
      </trkpt>
      <trkpt lat="43.731005" lon="3.320202">
        <time>1970-01-01T00:00:00+00:00</time>
        <ele>168.0</ele>
      </trkpt>
      <trkpt lat="43.730974" lon="3.320466">
        <time>1970-01-01T00:00:00+00:00</time>
        <ele>168.0</ele>
      </trkpt>
      <trkpt lat="43.730991" lon="3.320755">
        <time>1970-01-01T00:00:00+00:00</time>
        <ele>167.0</ele>
      </trkpt>
      <trkpt lat="43.73097" lon="3.321058">
        <time>1970-01-01T00:00:00+00:00</time>
        <ele>165.0</ele>
      </trkpt>
      <trkpt lat="43.730889" lon="3.321363">
        <time>1970-01-01T00:00:00+00:00</time>
        <ele>164.0</ele>
      </trkpt>
      <trkpt lat="43.730912" lon="3.321372">
        <time>1970-01-01T00:00:00+00:00</time>
        <ele>164.0</ele>
      </trkpt>
      <trkpt lat="43.730972" lon="3.321998">
        <time>1970-01-01T00:00:00+00:00</time>
        <ele>161.0</ele>
      </trkpt>
      <trkpt lat="43.730989" lon="3.322172">
        <time>1970-01-01T00:00:00+00:00</time>
        <ele>160.0</ele>
      </trkpt>
      <trkpt lat="43.731013" lon="3.322505">
        <time>1970-01-01T00:00:00+00:00</time>
        <ele>159.0</ele>
      </trkpt>
      <trkpt lat="43.731028" lon="3.322722">
        <time>1970-01-01T00:00:00+00:00</time>
        <ele>159.0</ele>
      </trkpt>
      <trkpt lat="43.731034" lon="3.322798">
        <time>1970-01-01T00:00:00+00:00</time>
        <ele>159.0</ele>
      </trkpt>
      <trkpt lat="43.731068" lon="3.323278">
        <time>1970-01-01T00:00:00+00:00</time>
        <ele>156.0</ele>
      </trkpt>
      <trkpt lat="43.731073" lon="3.323436">
        <time>1970-01-01T00:00:00+00:00</time>
        <ele>155.0</ele>
      </trkpt>
      <trkpt lat="43.731088" lon="3.323777">
        <time>1970-01-01T00:00:00+00:00</time>
        <ele>159.0</ele>
      </trkpt>
      <trkpt lat="43.731097" lon="3.32401">
        <time>1970-01-01T00:00:00+00:00</time>
        <ele>161.0</ele>
      </trkpt>
      <trkpt lat="43.731155" lon="3.323994">
        <time>1970-01-01T00:00:00+00:00</time>
        <ele>161.0</ele>
      </trkpt>
      <trkpt lat="43.731188" lon="3.323985">
        <time>1970-01-01T00:00:00+00:00</time>
        <ele>161.0</ele>
      </trkpt>
      <trkpt lat="43.731511" lon="3.323903">
        <time>1970-01-01T00:00:00+00:00</time>
        <ele>160.0</ele>
      </trkpt>
      <trkpt lat="43.73195" lon="3.32378">
        <time>1970-01-01T00:00:00+00:00</time>
        <ele>160.0</ele>
      </trkpt>
      <trkpt lat="43.731997" lon="3.324056">
        <time>1970-01-01T00:00:00+00:00</time>
        <ele>162.0</ele>
      </trkpt>
      <trkpt lat="43.732096" lon="3.324708">
        <time>1970-01-01T00:00:00+00:00</time>
        <ele>164.0</ele>
      </trkpt>
      <trkpt lat="43.73213" lon="3.324729">
        <time>1970-01-01T00:00:00+00:00</time>
        <ele>164.0</ele>
      </trkpt>
      <trkpt lat="43.732148" lon="3.324772">
        <time>1970-01-01T00:00:00+00:00</time>
        <ele>165.0</ele>
      </trkpt>
      <trkpt lat="43.732157" lon="3.324792">
        <time>1970-01-01T00:00:00+00:00</time>
        <ele>165.0</ele>
      </trkpt>
      <trkpt lat="43.732426" lon="3.324725">
        <time>1970-01-01T00:00:00+00:00</time>
        <ele>165.0</ele>
      </trkpt>
      <trkpt lat="43.732429" lon="3.324816">
        <time>1970-01-01T00:00:00+00:00</time>
        <ele>166.0</ele>
      </trkpt>
      <trkpt lat="43.732445" lon="3.324903">
        <time>1970-01-01T00:00:00+00:00</time>
        <ele>166.0</ele>
      </trkpt>
      <trkpt lat="43.732521" lon="3.325073">
        <time>1970-01-01T00:00:00+00:00</time>
        <ele>167.0</ele>
      </trkpt>
      <trkpt lat="43.732566" lon="3.325303">
        <time>1970-01-01T00:00:00+00:00</time>
        <ele>171.0</ele>
      </trkpt>
      <trkpt lat="43.732663" lon="3.325581">
        <time>1970-01-01T00:00:00+00:00</time>
        <ele>180.0</ele>
      </trkpt>
      <trkpt lat="43.732756" lon="3.325761">
        <time>1970-01-01T00:00:00+00:00</time>
        <ele>185.0</ele>
      </trkpt>
      <trkpt lat="43.733175" lon="3.326437">
        <time>1970-01-01T00:00:00+00:00</time>
        <ele>199.0</ele>
      </trkpt>
      <trkpt lat="43.733383" lon="3.326664">
        <time>1970-01-01T00:00:00+00:00</time>
        <ele>202.0</ele>
      </trkpt>
      <trkpt lat="43.733514" lon="3.326854">
        <time>1970-01-01T00:00:00+00:00</time>
        <ele>206.0</ele>
      </trkpt>
      <trkpt lat="43.733623" lon="3.327078">
        <time>1970-01-01T00:00:00+00:00</time>
        <ele>212.0</ele>
      </trkpt>
      <trkpt lat="43.733997" lon="3.32732">
        <time>1970-01-01T00:00:00+00:00</time>
        <ele>213.0</ele>
      </trkpt>
      <trkpt lat="43.734291" lon="3.327469">
        <time>1970-01-01T00:00:00+00:00</time>
        <ele>214.0</ele>
      </trkpt>
      <trkpt lat="43.735013" lon="3.327725">
        <time>1970-01-01T00:00:00+00:00</time>
        <ele>217.0</ele>
      </trkpt>
      <trkpt lat="43.735613" lon="3.327809">
        <time>1970-01-01T00:00:00+00:00</time>
        <ele>217.0</ele>
      </trkpt>
      <trkpt lat="43.735596" lon="3.32787">
        <time>1970-01-01T00:00:00+00:00</time>
        <ele>218.0</ele>
      </trkpt>
      <trkpt lat="43.735481" lon="3.328292">
        <time>1970-01-01T00:00:00+00:00</time>
        <ele>218.0</ele>
      </trkpt>
      <trkpt lat="43.73546" lon="3.32835">
        <time>1970-01-01T00:00:00+00:00</time>
        <ele>219.0</ele>
      </trkpt>
      <trkpt lat="43.735414" lon="3.328391">
        <time>1970-01-01T00:00:00+00:00</time>
        <ele>220.0</ele>
      </trkpt>
      <trkpt lat="43.73535" lon="3.3284">
        <time>1970-01-01T00:00:00+00:00</time>
        <ele>221.0</ele>
      </trkpt>
      <trkpt lat="43.735129" lon="3.328336">
        <time>1970-01-01T00:00:00+00:00</time>
        <ele>225.0</ele>
      </trkpt>
      <trkpt lat="43.734704" lon="3.328243">
        <time>1970-01-01T00:00:00+00:00</time>
        <ele>230.0</ele>
      </trkpt>
      <trkpt lat="43.734204" lon="3.328151">
        <time>1970-01-01T00:00:00+00:00</time>
        <ele>235.0</ele>
      </trkpt>
      <trkpt lat="43.733635" lon="3.328053">
        <time>1970-01-01T00:00:00+00:00</time>
        <ele>242.0</ele>
      </trkpt>
      <trkpt lat="43.733345" lon="3.327982">
        <time>1970-01-01T00:00:00+00:00</time>
        <ele>245.0</ele>
      </trkpt>
      <trkpt lat="43.732868" lon="3.327834">
        <time>1970-01-01T00:00:00+00:00</time>
        <ele>250.0</ele>
      </trkpt>
      <trkpt lat="43.732112" lon="3.327554">
        <time>1970-01-01T00:00:00+00:00</time>
        <ele>253.0</ele>
      </trkpt>
      <trkpt lat="43.73191" lon="3.327548">
        <time>1970-01-01T00:00:00+00:00</time>
        <ele>253.0</ele>
      </trkpt>
      <trkpt lat="43.731195" lon="3.327607">
        <time>1970-01-01T00:00:00+00:00</time>
        <ele>248.0</ele>
      </trkpt>
      <trkpt lat="43.731041" lon="3.327652">
        <time>1970-01-01T00:00:00+00:00</time>
        <ele>246.0</ele>
      </trkpt>
      <trkpt lat="43.730886" lon="3.327765">
        <time>1970-01-01T00:00:00+00:00</time>
        <ele>244.0</ele>
      </trkpt>
      <trkpt lat="43.730777" lon="3.327939">
        <time>1970-01-01T00:00:00+00:00</time>
        <ele>241.0</ele>
      </trkpt>
      <trkpt lat="43.730724" lon="3.328098">
        <time>1970-01-01T00:00:00+00:00</time>
        <ele>240.0</ele>
      </trkpt>
      <trkpt lat="43.730687" lon="3.32829">
        <time>1970-01-01T00:00:00+00:00</time>
        <ele>238.0</ele>
      </trkpt>
      <trkpt lat="43.730696" lon="3.328524">
        <time>1970-01-01T00:00:00+00:00</time>
        <ele>237.0</ele>
      </trkpt>
      <trkpt lat="43.730776" lon="3.328784">
        <time>1970-01-01T00:00:00+00:00</time>
        <ele>239.0</ele>
      </trkpt>
      <trkpt lat="43.730952" lon="3.329208">
        <time>1970-01-01T00:00:00+00:00</time>
        <ele>242.0</ele>
      </trkpt>
      <trkpt lat="43.731107" lon="3.329739">
        <time>1970-01-01T00:00:00+00:00</time>
        <ele>246.0</ele>
      </trkpt>
      <trkpt lat="43.73123" lon="3.330255">
        <time>1970-01-01T00:00:00+00:00</time>
        <ele>251.0</ele>
      </trkpt>
      <trkpt lat="43.731279" lon="3.330697">
        <time>1970-01-01T00:00:00+00:00</time>
        <ele>255.0</ele>
      </trkpt>
      <trkpt lat="43.73129" lon="3.331034">
        <time>1970-01-01T00:00:00+00:00</time>
        <ele>259.0</ele>
      </trkpt>
      <trkpt lat="43.731261" lon="3.331282">
        <time>1970-01-01T00:00:00+00:00</time>
        <ele>260.0</ele>
      </trkpt>
      <trkpt lat="43.730977" lon="3.33202">
        <time>1970-01-01T00:00:00+00:00</time>
        <ele>269.0</ele>
      </trkpt>
      <trkpt lat="43.730935" lon="3.332097">
        <time>1970-01-01T00:00:00+00:00</time>
        <ele>272.0</ele>
      </trkpt>
      <trkpt lat="43.73088" lon="3.332141">
        <time>1970-01-01T00:00:00+00:00</time>
        <ele>275.0</ele>
      </trkpt>
      <trkpt lat="43.730832" lon="3.332146">
        <time>1970-01-01T00:00:00+00:00</time>
        <ele>277.0</ele>
      </trkpt>
      <trkpt lat="43.730745" lon="3.332105">
        <time>1970-01-01T00:00:00+00:00</time>
        <ele>281.0</ele>
      </trkpt>
      <trkpt lat="43.73069" lon="3.332017">
        <time>1970-01-01T00:00:00+00:00</time>
        <ele>283.0</ele>
      </trkpt>
      <trkpt lat="43.730619" lon="3.331491">
        <time>1970-01-01T00:00:00+00:00</time>
        <ele>277.0</ele>
      </trkpt>
      <trkpt lat="43.730496" lon="3.331194">
        <time>1970-01-01T00:00:00+00:00</time>
        <ele>278.0</ele>
      </trkpt>
      <trkpt lat="43.730376" lon="3.33102">
        <time>1970-01-01T00:00:00+00:00</time>
        <ele>278.0</ele>
      </trkpt>
      <trkpt lat="43.73025" lon="3.330933">
        <time>1970-01-01T00:00:00+00:00</time>
        <ele>278.0</ele>
      </trkpt>
      <trkpt lat="43.730088" lon="3.330865">
        <time>1970-01-01T00:00:00+00:00</time>
        <ele>279.0</ele>
      </trkpt>
      <trkpt lat="43.729514" lon="3.330721">
        <time>1970-01-01T00:00:00+00:00</time>
        <ele>285.0</ele>
      </trkpt>
      <trkpt lat="43.729222" lon="3.330589">
        <time>1970-01-01T00:00:00+00:00</time>
        <ele>286.0</ele>
      </trkpt>
      <trkpt lat="43.729148" lon="3.330492">
        <time>1970-01-01T00:00:00+00:00</time>
        <ele>283.0</ele>
      </trkpt>
      <trkpt lat="43.728992" lon="3.330012">
        <time>1970-01-01T00:00:00+00:00</time>
        <ele>277.0</ele>
      </trkpt>
      <trkpt lat="43.728922" lon="3.329853">
        <time>1970-01-01T00:00:00+00:00</time>
        <ele>277.0</ele>
      </trkpt>
      <trkpt lat="43.728848" lon="3.329752">
        <time>1970-01-01T00:00:00+00:00</time>
        <ele>278.0</ele>
      </trkpt>
      <trkpt lat="43.728765" lon="3.329708">
        <time>1970-01-01T00:00:00+00:00</time>
        <ele>281.0</ele>
      </trkpt>
      <trkpt lat="43.728178" lon="3.329593">
        <time>1970-01-01T00:00:00+00:00</time>
        <ele>293.0</ele>
      </trkpt>
      <trkpt lat="43.727741" lon="3.329434">
        <time>1970-01-01T00:00:00+00:00</time>
        <ele>295.0</ele>
      </trkpt>
      <trkpt lat="43.727615" lon="3.329356">
        <time>1970-01-01T00:00:00+00:00</time>
        <ele>295.0</ele>
      </trkpt>
      <trkpt lat="43.727551" lon="3.329281">
        <time>1970-01-01T00:00:00+00:00</time>
        <ele>295.0</ele>
      </trkpt>
      <trkpt lat="43.727528" lon="3.329203">
        <time>1970-01-01T00:00:00+00:00</time>
        <ele>295.0</ele>
      </trkpt>
      <trkpt lat="43.727524" lon="3.329128">
        <time>1970-01-01T00:00:00+00:00</time>
        <ele>294.0</ele>
      </trkpt>
      <trkpt lat="43.727567" lon="3.328995">
        <time>1970-01-01T00:00:00+00:00</time>
        <ele>293.0</ele>
      </trkpt>
      <trkpt lat="43.727733" lon="3.328681">
        <time>1970-01-01T00:00:00+00:00</time>
        <ele>292.0</ele>
      </trkpt>
      <trkpt lat="43.728114" lon="3.328054">
        <time>1970-01-01T00:00:00+00:00</time>
        <ele>285.0</ele>
      </trkpt>
      <trkpt lat="43.728311" lon="3.327826">
        <time>1970-01-01T00:00:00+00:00</time>
        <ele>284.0</ele>
      </trkpt>
      <trkpt lat="43.72836" lon="3.327673">
        <time>1970-01-01T00:00:00+00:00</time>
        <ele>287.0</ele>
      </trkpt>
      <trkpt lat="43.728361" lon="3.327503">
        <time>1970-01-01T00:00:00+00:00</time>
        <ele>290.0</ele>
      </trkpt>
      <trkpt lat="43.728315" lon="3.327202">
        <time>1970-01-01T00:00:00+00:00</time>
        <ele>294.0</ele>
      </trkpt>
      <trkpt lat="43.728247" lon="3.327039">
        <time>1970-01-01T00:00:00+00:00</time>
        <ele>296.0</ele>
      </trkpt>
      <trkpt lat="43.727955" lon="3.326762">
        <time>1970-01-01T00:00:00+00:00</time>
        <ele>304.0</ele>
      </trkpt>
      <trkpt lat="43.727804" lon="3.326656">
        <time>1970-01-01T00:00:00+00:00</time>
        <ele>298.0</ele>
      </trkpt>
      <trkpt lat="43.727724" lon="3.326647">
        <time>1970-01-01T00:00:00+00:00</time>
        <ele>297.0</ele>
      </trkpt>
      <trkpt lat="43.727706" lon="3.326655">
        <time>1970-01-01T00:00:00+00:00</time>
        <ele>297.0</ele>
      </trkpt>
      <trkpt lat="43.727706" lon="3.326655">
        <time>1970-01-01T00:00:00+00:00</time>
        <ele>297.0</ele>
      </trkpt>
      <trkpt lat="43.727724" lon="3.326647">
        <time>1970-01-01T00:00:00+00:00</time>
        <ele>297.0</ele>
      </trkpt>
      <trkpt lat="43.727804" lon="3.326656">
        <time>1970-01-01T00:00:00+00:00</time>
        <ele>298.0</ele>
      </trkpt>
      <trkpt lat="43.727955" lon="3.326762">
        <time>1970-01-01T00:00:00+00:00</time>
        <ele>304.0</ele>
      </trkpt>
      <trkpt lat="43.728247" lon="3.327039">
        <time>1970-01-01T00:00:00+00:00</time>
        <ele>296.0</ele>
      </trkpt>
      <trkpt lat="43.728315" lon="3.327202">
        <time>1970-01-01T00:00:00+00:00</time>
        <ele>294.0</ele>
      </trkpt>
      <trkpt lat="43.728361" lon="3.327503">
        <time>1970-01-01T00:00:00+00:00</time>
        <ele>290.0</ele>
      </trkpt>
      <trkpt lat="43.72836" lon="3.327673">
        <time>1970-01-01T00:00:00+00:00</time>
        <ele>287.0</ele>
      </trkpt>
      <trkpt lat="43.728311" lon="3.327826">
        <time>1970-01-01T00:00:00+00:00</time>
        <ele>284.0</ele>
      </trkpt>
      <trkpt lat="43.728114" lon="3.328054">
        <time>1970-01-01T00:00:00+00:00</time>
        <ele>285.0</ele>
      </trkpt>
      <trkpt lat="43.727733" lon="3.328681">
        <time>1970-01-01T00:00:00+00:00</time>
        <ele>292.0</ele>
      </trkpt>
      <trkpt lat="43.727567" lon="3.328995">
        <time>1970-01-01T00:00:00+00:00</time>
        <ele>293.0</ele>
      </trkpt>
      <trkpt lat="43.727524" lon="3.329128">
        <time>1970-01-01T00:00:00+00:00</time>
        <ele>294.0</ele>
      </trkpt>
      <trkpt lat="43.727528" lon="3.329203">
        <time>1970-01-01T00:00:00+00:00</time>
        <ele>295.0</ele>
      </trkpt>
      <trkpt lat="43.727551" lon="3.329281">
        <time>1970-01-01T00:00:00+00:00</time>
        <ele>295.0</ele>
      </trkpt>
      <trkpt lat="43.727615" lon="3.329356">
        <time>1970-01-01T00:00:00+00:00</time>
        <ele>295.0</ele>
      </trkpt>
      <trkpt lat="43.727741" lon="3.329434">
        <time>1970-01-01T00:00:00+00:00</time>
        <ele>295.0</ele>
      </trkpt>
      <trkpt lat="43.728178" lon="3.329593">
        <time>1970-01-01T00:00:00+00:00</time>
        <ele>293.0</ele>
      </trkpt>
      <trkpt lat="43.728765" lon="3.329708">
        <time>1970-01-01T00:00:00+00:00</time>
        <ele>281.0</ele>
      </trkpt>
      <trkpt lat="43.728848" lon="3.329752">
        <time>1970-01-01T00:00:00+00:00</time>
        <ele>278.0</ele>
      </trkpt>
      <trkpt lat="43.728922" lon="3.329853">
        <time>1970-01-01T00:00:00+00:00</time>
        <ele>277.0</ele>
      </trkpt>
      <trkpt lat="43.728992" lon="3.330012">
        <time>1970-01-01T00:00:00+00:00</time>
        <ele>277.0</ele>
      </trkpt>
      <trkpt lat="43.729148" lon="3.330492">
        <time>1970-01-01T00:00:00+00:00</time>
        <ele>283.0</ele>
      </trkpt>
      <trkpt lat="43.729222" lon="3.330589">
        <time>1970-01-01T00:00:00+00:00</time>
        <ele>286.0</ele>
      </trkpt>
      <trkpt lat="43.729514" lon="3.330721">
        <time>1970-01-01T00:00:00+00:00</time>
        <ele>285.0</ele>
      </trkpt>
      <trkpt lat="43.730088" lon="3.330865">
        <time>1970-01-01T00:00:00+00:00</time>
        <ele>279.0</ele>
      </trkpt>
      <trkpt lat="43.73025" lon="3.330933">
        <time>1970-01-01T00:00:00+00:00</time>
        <ele>278.0</ele>
      </trkpt>
      <trkpt lat="43.730376" lon="3.33102">
        <time>1970-01-01T00:00:00+00:00</time>
        <ele>278.0</ele>
      </trkpt>
      <trkpt lat="43.730496" lon="3.331194">
        <time>1970-01-01T00:00:00+00:00</time>
        <ele>278.0</ele>
      </trkpt>
      <trkpt lat="43.730619" lon="3.331491">
        <time>1970-01-01T00:00:00+00:00</time>
        <ele>277.0</ele>
      </trkpt>
      <trkpt lat="43.73069" lon="3.332017">
        <time>1970-01-01T00:00:00+00:00</time>
        <ele>283.0</ele>
      </trkpt>
      <trkpt lat="43.730745" lon="3.332105">
        <time>1970-01-01T00:00:00+00:00</time>
        <ele>281.0</ele>
      </trkpt>
      <trkpt lat="43.730832" lon="3.332146">
        <time>1970-01-01T00:00:00+00:00</time>
        <ele>277.0</ele>
      </trkpt>
      <trkpt lat="43.73088" lon="3.332141">
        <time>1970-01-01T00:00:00+00:00</time>
        <ele>275.0</ele>
      </trkpt>
      <trkpt lat="43.730935" lon="3.332097">
        <time>1970-01-01T00:00:00+00:00</time>
        <ele>272.0</ele>
      </trkpt>
      <trkpt lat="43.730977" lon="3.33202">
        <time>1970-01-01T00:00:00+00:00</time>
        <ele>269.0</ele>
      </trkpt>
      <trkpt lat="43.731261" lon="3.331282">
        <time>1970-01-01T00:00:00+00:00</time>
        <ele>260.0</ele>
      </trkpt>
      <trkpt lat="43.73129" lon="3.331034">
        <time>1970-01-01T00:00:00+00:00</time>
        <ele>259.0</ele>
      </trkpt>
      <trkpt lat="43.731279" lon="3.330697">
        <time>1970-01-01T00:00:00+00:00</time>
        <ele>255.0</ele>
      </trkpt>
      <trkpt lat="43.73123" lon="3.330255">
        <time>1970-01-01T00:00:00+00:00</time>
        <ele>251.0</ele>
      </trkpt>
      <trkpt lat="43.731107" lon="3.329739">
        <time>1970-01-01T00:00:00+00:00</time>
        <ele>246.0</ele>
      </trkpt>
      <trkpt lat="43.730952" lon="3.329208">
        <time>1970-01-01T00:00:00+00:00</time>
        <ele>242.0</ele>
      </trkpt>
      <trkpt lat="43.730776" lon="3.328784">
        <time>1970-01-01T00:00:00+00:00</time>
        <ele>239.0</ele>
      </trkpt>
      <trkpt lat="43.730696" lon="3.328524">
        <time>1970-01-01T00:00:00+00:00</time>
        <ele>237.0</ele>
      </trkpt>
      <trkpt lat="43.730687" lon="3.32829">
        <time>1970-01-01T00:00:00+00:00</time>
        <ele>238.0</ele>
      </trkpt>
      <trkpt lat="43.730724" lon="3.328098">
        <time>1970-01-01T00:00:00+00:00</time>
        <ele>240.0</ele>
      </trkpt>
      <trkpt lat="43.730777" lon="3.327939">
        <time>1970-01-01T00:00:00+00:00</time>
        <ele>241.0</ele>
      </trkpt>
      <trkpt lat="43.730886" lon="3.327765">
        <time>1970-01-01T00:00:00+00:00</time>
        <ele>244.0</ele>
      </trkpt>
      <trkpt lat="43.731041" lon="3.327652">
        <time>1970-01-01T00:00:00+00:00</time>
        <ele>246.0</ele>
      </trkpt>
      <trkpt lat="43.731195" lon="3.327607">
        <time>1970-01-01T00:00:00+00:00</time>
        <ele>248.0</ele>
      </trkpt>
      <trkpt lat="43.73191" lon="3.327548">
        <time>1970-01-01T00:00:00+00:00</time>
        <ele>253.0</ele>
      </trkpt>
      <trkpt lat="43.732112" lon="3.327554">
        <time>1970-01-01T00:00:00+00:00</time>
        <ele>253.0</ele>
      </trkpt>
      <trkpt lat="43.732868" lon="3.327834">
        <time>1970-01-01T00:00:00+00:00</time>
        <ele>250.0</ele>
      </trkpt>
      <trkpt lat="43.733345" lon="3.327982">
        <time>1970-01-01T00:00:00+00:00</time>
        <ele>245.0</ele>
      </trkpt>
      <trkpt lat="43.733635" lon="3.328053">
        <time>1970-01-01T00:00:00+00:00</time>
        <ele>242.0</ele>
      </trkpt>
      <trkpt lat="43.734204" lon="3.328151">
        <time>1970-01-01T00:00:00+00:00</time>
        <ele>235.0</ele>
      </trkpt>
      <trkpt lat="43.734704" lon="3.328243">
        <time>1970-01-01T00:00:00+00:00</time>
        <ele>230.0</ele>
      </trkpt>
      <trkpt lat="43.735129" lon="3.328336">
        <time>1970-01-01T00:00:00+00:00</time>
        <ele>225.0</ele>
      </trkpt>
      <trkpt lat="43.73535" lon="3.3284">
        <time>1970-01-01T00:00:00+00:00</time>
        <ele>221.0</ele>
      </trkpt>
      <trkpt lat="43.735414" lon="3.328391">
        <time>1970-01-01T00:00:00+00:00</time>
        <ele>220.0</ele>
      </trkpt>
      <trkpt lat="43.73546" lon="3.32835">
        <time>1970-01-01T00:00:00+00:00</time>
        <ele>219.0</ele>
      </trkpt>
      <trkpt lat="43.735481" lon="3.328292">
        <time>1970-01-01T00:00:00+00:00</time>
        <ele>218.0</ele>
      </trkpt>
      <trkpt lat="43.735596" lon="3.32787">
        <time>1970-01-01T00:00:00+00:00</time>
        <ele>218.0</ele>
      </trkpt>
      <trkpt lat="43.735613" lon="3.327809">
        <time>1970-01-01T00:00:00+00:00</time>
        <ele>217.0</ele>
      </trkpt>
      <trkpt lat="43.735013" lon="3.327725">
        <time>1970-01-01T00:00:00+00:00</time>
        <ele>217.0</ele>
      </trkpt>
      <trkpt lat="43.734291" lon="3.327469">
        <time>1970-01-01T00:00:00+00:00</time>
        <ele>214.0</ele>
      </trkpt>
      <trkpt lat="43.733997" lon="3.32732">
        <time>1970-01-01T00:00:00+00:00</time>
        <ele>213.0</ele>
      </trkpt>
      <trkpt lat="43.733623" lon="3.327078">
        <time>1970-01-01T00:00:00+00:00</time>
        <ele>212.0</ele>
      </trkpt>
      <trkpt lat="43.733514" lon="3.326854">
        <time>1970-01-01T00:00:00+00:00</time>
        <ele>206.0</ele>
      </trkpt>
      <trkpt lat="43.733383" lon="3.326664">
        <time>1970-01-01T00:00:00+00:00</time>
        <ele>202.0</ele>
      </trkpt>
      <trkpt lat="43.733175" lon="3.326437">
        <time>1970-01-01T00:00:00+00:00</time>
        <ele>199.0</ele>
      </trkpt>
      <trkpt lat="43.732756" lon="3.325761">
        <time>1970-01-01T00:00:00+00:00</time>
        <ele>185.0</ele>
      </trkpt>
      <trkpt lat="43.732663" lon="3.325581">
        <time>1970-01-01T00:00:00+00:00</time>
        <ele>180.0</ele>
      </trkpt>
      <trkpt lat="43.732566" lon="3.325303">
        <time>1970-01-01T00:00:00+00:00</time>
        <ele>171.0</ele>
      </trkpt>
      <trkpt lat="43.732521" lon="3.325073">
        <time>1970-01-01T00:00:00+00:00</time>
        <ele>167.0</ele>
      </trkpt>
      <trkpt lat="43.732445" lon="3.324903">
        <time>1970-01-01T00:00:00+00:00</time>
        <ele>166.0</ele>
      </trkpt>
      <trkpt lat="43.732429" lon="3.324816">
        <time>1970-01-01T00:00:00+00:00</time>
        <ele>166.0</ele>
      </trkpt>
      <trkpt lat="43.732426" lon="3.324725">
        <time>1970-01-01T00:00:00+00:00</time>
        <ele>165.0</ele>
      </trkpt>
      <trkpt lat="43.732157" lon="3.324792">
        <time>1970-01-01T00:00:00+00:00</time>
        <ele>165.0</ele>
      </trkpt>
      <trkpt lat="43.732148" lon="3.324772">
        <time>1970-01-01T00:00:00+00:00</time>
        <ele>165.0</ele>
      </trkpt>
      <trkpt lat="43.73213" lon="3.324729">
        <time>1970-01-01T00:00:00+00:00</time>
        <ele>164.0</ele>
      </trkpt>
      <trkpt lat="43.732096" lon="3.324708">
        <time>1970-01-01T00:00:00+00:00</time>
        <ele>164.0</ele>
      </trkpt>
      <trkpt lat="43.731997" lon="3.324056">
        <time>1970-01-01T00:00:00+00:00</time>
        <ele>162.0</ele>
      </trkpt>
      <trkpt lat="43.73195" lon="3.32378">
        <time>1970-01-01T00:00:00+00:00</time>
        <ele>160.0</ele>
      </trkpt>
      <trkpt lat="43.731511" lon="3.323903">
        <time>1970-01-01T00:00:00+00:00</time>
        <ele>160.0</ele>
      </trkpt>
      <trkpt lat="43.731188" lon="3.323985">
        <time>1970-01-01T00:00:00+00:00</time>
        <ele>161.0</ele>
      </trkpt>
      <trkpt lat="43.731155" lon="3.323994">
        <time>1970-01-01T00:00:00+00:00</time>
        <ele>161.0</ele>
      </trkpt>
      <trkpt lat="43.731097" lon="3.32401">
        <time>1970-01-01T00:00:00+00:00</time>
        <ele>161.0</ele>
      </trkpt>
      <trkpt lat="43.731088" lon="3.323777">
        <time>1970-01-01T00:00:00+00:00</time>
        <ele>159.0</ele>
      </trkpt>
      <trkpt lat="43.731073" lon="3.323436">
        <time>1970-01-01T00:00:00+00:00</time>
        <ele>155.0</ele>
      </trkpt>
      <trkpt lat="43.731068" lon="3.323278">
        <time>1970-01-01T00:00:00+00:00</time>
        <ele>156.0</ele>
      </trkpt>
      <trkpt lat="43.731034" lon="3.322798">
        <time>1970-01-01T00:00:00+00:00</time>
        <ele>159.0</ele>
      </trkpt>
      <trkpt lat="43.731028" lon="3.322722">
        <time>1970-01-01T00:00:00+00:00</time>
        <ele>159.0</ele>
      </trkpt>
      <trkpt lat="43.731013" lon="3.322505">
        <time>1970-01-01T00:00:00+00:00</time>
        <ele>159.0</ele>
      </trkpt>
      <trkpt lat="43.730989" lon="3.322172">
        <time>1970-01-01T00:00:00+00:00</time>
        <ele>160.0</ele>
      </trkpt>
      <trkpt lat="43.730972" lon="3.321998">
        <time>1970-01-01T00:00:00+00:00</time>
        <ele>161.0</ele>
      </trkpt>
      <trkpt lat="43.730912" lon="3.321372">
        <time>1970-01-01T00:00:00+00:00</time>
        <ele>164.0</ele>
      </trkpt>
      <trkpt lat="43.730889" lon="3.321363">
        <time>1970-01-01T00:00:00+00:00</time>
        <ele>164.0</ele>
      </trkpt>
      <trkpt lat="43.73097" lon="3.321058">
        <time>1970-01-01T00:00:00+00:00</time>
        <ele>165.0</ele>
      </trkpt>
      <trkpt lat="43.730991" lon="3.320755">
        <time>1970-01-01T00:00:00+00:00</time>
        <ele>167.0</ele>
      </trkpt>
      <trkpt lat="43.730974" lon="3.320466">
        <time>1970-01-01T00:00:00+00:00</time>
        <ele>168.0</ele>
      </trkpt>
      <trkpt lat="43.731005" lon="3.320202">
        <time>1970-01-01T00:00:00+00:00</time>
        <ele>168.0</ele>
      </trkpt>
      <trkpt lat="43.731004" lon="3.320202">
        <time>1970-01-01T00:00:00+00:00</time>
        <ele>168.0</ele>
      </trkpt>
      <trkpt lat="43.730979" lon="3.320189">
        <time>1970-01-01T00:00:00+00:00</time>
        <ele>168.0</ele>
      </trkpt>
      <trkpt lat="43.730923" lon="3.320159">
        <time>1970-01-01T00:00:00+00:00</time>
        <ele>168.0</ele>
      </trkpt>
      <trkpt lat="43.7308" lon="3.320094">
        <time>1970-01-01T00:00:00+00:00</time>
        <ele>167.0</ele>
      </trkpt>
      <trkpt lat="43.730772" lon="3.320079">
        <time>1970-01-01T00:00:00+00:00</time>
        <ele>167.0</ele>
      </trkpt>
      <trkpt lat="43.730738" lon="3.32006">
        <time>1970-01-01T00:00:00+00:00</time>
        <ele>167.0</ele>
      </trkpt>
      <trkpt lat="43.730528" lon="3.319916">
        <time>1970-01-01T00:00:00+00:00</time>
        <ele>165.0</ele>
      </trkpt>
    </trkseg>
  </trk>
</gpx>
